Location: Newark
(42.7133°N, 87.7910°W)
Time: 03:07:12
(UTC+00:00)

Vanguard 3 - All Passes

Search period start: 20 September 2019 00:00
Search period end: 30 September 2019 00:00
Orbit: 508 x 3263 km, 33.4° (Epoch: 19 September)

Date Brightness Start Highest point End Pass type
(mag) Time Alt. Az. Time Alt. Az. Time Alt. Az.
20 Sep - 10:52:33 10° SSE 10:59:58 16° SE 11:08:55 10° E visible
20 Sep - 12:58:26 10° SSW 13:12:04 43° SSE 13:29:48 10° E daylight
20 Sep - 15:09:55 10° WSW 15:27:08 62° S 15:46:05 10° E daylight
20 Sep - 17:24:19 10° W 17:43:22 59° SSW 18:00:00 10° ESE daylight
20 Sep - 19:41:08 10° W 19:57:55 37° SW 20:10:42 10° SSE daylight
20 Sep - 22:05:30 10° WSW 22:09:27 11° SW 22:13:04 10° SW daylight
21 Sep - 11:45:54 10° SSW 11:56:56 30° SE 12:11:47 10° E daylight
21 Sep - 13:55:23 10° SW 14:10:32 55° SSE 14:29:37 10° E daylight
21 Sep - 16:08:22 10° WSW 16:26:31 63° S 16:44:55 10° ESE daylight
21 Sep - 18:23:47 10° W 18:42:15 49° SSW 18:57:28 10° SE daylight
21 Sep - 20:42:35 10° W 20:55:19 23° SW 21:05:31 10° S daylight
22 Sep - 10:35:13 10° SSE 10:42:41 18° SE 10:52:06 10° E visible
22 Sep - 12:41:46 10° SW 12:54:39 45° SSE 13:12:25 10° E daylight
22 Sep - 14:53:12 10° WSW 15:09:38 63° S 15:28:59 10° E daylight
22 Sep - 17:07:17 10° W 17:25:50 58° SSW 17:43:09 10° ESE daylight
22 Sep - 19:23:54 10° W 19:40:25 35° SW 19:53:48 10° SSE daylight
23 Sep - 11:29:11 10° SSW 11:39:38 32° SE 11:54:24 10° E daylight
23 Sep - 13:38:49 10° WSW 13:53:07 57° SSE 14:12:17 10° E daylight
23 Sep - 15:51:35 10° W 16:09:01 63° S 16:27:53 10° ESE daylight
23 Sep - 18:06:39 10° W 18:24:41 46° SSW 18:40:33 10° SE daylight
23 Sep - 20:25:42 10° W 20:37:52 21° SW 20:48:07 10° S daylight
24 Sep - 10:18:12 10° S 10:25:30 19° SE 10:35:05 10° E visible
24 Sep - 12:25:16 10° SW 12:37:20 47° SSE 12:54:56 10° E daylight
24 Sep - 14:36:37 10° WSW 14:52:12 63° S 15:11:44 10° ESE daylight
24 Sep - 16:50:23 10° W 17:08:16 56° SSW 17:26:08 10° SE daylight
24 Sep - 19:06:50 10° W 19:22:51 33° SW 19:36:39 10° SSE daylight
25 Sep - 11:12:40 10° SSW 11:22:27 34° SE 11:36:56 10° E visible
25 Sep - 13:22:24 10° WSW 13:35:49 58° SSE 13:54:52 10° E daylight
25 Sep - 15:34:55 10° W 15:51:30 61° S 16:10:42 10° ESE daylight
25 Sep - 17:49:41 10° W 18:07:05 44° SSW 18:23:24 10° SE daylight
25 Sep - 20:09:05 10° W 20:20:21 19° SW 20:30:20 10° SSW daylight
26 Sep - 10:01:26 10° S 10:08:26 20° SE 10:17:57 10° E visible
26 Sep - 12:08:55 10° SW 12:20:10 48° SSE 12:37:22 10° E daylight
26 Sep - 14:20:10 10° WSW 14:34:49 62° S 14:54:22 10° ESE daylight
26 Sep - 16:33:38 10° W 16:50:42 53° SSW 17:08:56 10° SE daylight
26 Sep - 18:49:57 10° W 19:05:15 30° SW 19:19:13 10° SSE daylight
27 Sep - 10:56:18 10° SSW 11:05:24 35° SE 11:19:25 10° E visible
27 Sep - 13:06:05 10° WSW 13:18:36 58° SSE 13:37:19 10° E daylight
27 Sep - 15:18:23 10° W 15:34:03 59° S 15:53:22 10° ESE daylight
27 Sep - 17:32:53 10° W 17:49:28 41° SSW 18:06:03 10° SSE daylight
27 Sep - 19:52:53 10° W 20:02:49 16° SW 20:12:03 10° SSW daylight
28 Sep - 09:44:54 10° S 09:51:29 21° SE 10:00:46 10° E visible
28 Sep - 11:52:42 10° SW 12:03:07 49° SSE 12:19:45 10° E daylight
28 Sep - 14:03:50 10° WSW 14:17:32 61° S 14:36:53 10° ESE daylight
28 Sep - 16:17:00 10° W 16:33:10 50° SSW 16:51:32 10° SE daylight
28 Sep - 18:33:17 10° W 18:47:40 27° SW 19:01:30 10° S daylight
29 Sep - 10:40:04 10° SSW 10:48:29 36° SSE 11:01:53 10° E visible
29 Sep - 12:49:54 10° WSW 13:01:31 58° S 13:19:42 10° E daylight
29 Sep - 15:01:58 10° W 15:16:40 57° SSW 15:35:52 10° ESE daylight
29 Sep - 17:16:15 10° W 17:31:53 37° SSW 17:48:28 10° SSE daylight
29 Sep - 19:37:20 10° WSW 19:45:19 14° SW 19:53:02 10° SSW daylight
